Flag for U.S.A. Weather past 2 weeks in Columbia, South Carolina, U.S.A.

Now
88 °F

Sunny.


Feels Like: 95 °F
Forecast: 77 / 95 °F
Wind: 3 mph from North

Location: Columbia Owens Downtown Airport

Current Time: Jul 30, 2015 at 12:17:40 PM

Latest Report: Jul 30, 2015 at 10:53 AM


Visibility: 10 mi

Pressure: 29.97 "Hg

Humidity: 59%

Dew point: 72 °F

Location of ColumbiaLocation

Historic Weather in Columbia — Graph

°F

Columbia temperature yesterday

Maximum temperature yesterday: 96 °F (at 4:53 PM)
Minimum temperature yesterday: 76 °F (at 5:53 AM)
Average temperature yesterday: 85 °F

Past Weeks' High & Low Weather Summary

 TemperatureHumidityPressure
High101 °F (Jul 21, 4:53 PM)94% (Jul 18, 9:53 PM)30.07 "Hg (Jul 18, 9:53 PM)
Low70 °F (Jul 26, 5:53 AM)25% (Jul 22, 4:53 PM)29.72 "Hg (Jul 21, 5:53 PM)
Average85 °F63%29.93 "Hg
* Reported Jul 15 10:53 AM — Jul 30 10:53 AM, Columbia, Weather by CustomWeather, © 2015

Note: Actual official high and low records may vary slightly from our data, if they occured in-between our weather recording intervals... More about our weather records

Advertising

Columbia weather history for previous 24 hours

 ConditionsComfort  
Time TempWeatherWind HumidityBarometerVisibility
10:53 AM
Thu, Jul 30
88 °FSunny.3 mph59%29.97 "Hg10 mi
9:53 AM86 °FScattered clouds.No wind63%29.97 "Hg10 mi
8:53 AM83 °FPartly sunny.3 mph70%29.97 "Hg10 mi
7:53 AM80 °FSunny.No wind79%29.96 "Hg10 mi
6:53 AM78 °FClear.No wind87%29.94 "Hg10 mi
5:53 AM78 °FClear.No wind87%29.93 "Hg10 mi
4:53 AM79 °FPassing clouds.No wind84%29.93 "Hg10 mi
3:53 AM79 °FClear.3 mph84%29.94 "Hg10 mi
2:53 AM80 °FPassing clouds.3 mph81%29.96 "Hg10 mi
1:53 AM82 °FClear.5 mph74%29.98 "Hg10 mi
12:53 AM83 °FClear.5 mph72%29.98 "Hg10 mi
11:53 PM
Wed, Jul 29
84 °FPassing clouds.7 mph67%29.97 "Hg10 mi
10:53 PM87 °FMostly cloudy.3 mph67%29.96 "Hg10 mi
9:53 PM88 °FOvercast.No wind65%29.94 "Hg10 mi
8:53 PM89 °FOvercast.No wind61%29.93 "Hg10 mi
7:53 PM91 °FPassing clouds.5 mph54%29.91 "Hg10 mi
6:53 PM92 °FScattered clouds.8 mph51%29.90 "Hg10 mi
5:53 PM95 °FPartly sunny.8 mph41%29.90 "Hg10 mi
4:53 PM96 °FScattered clouds.5 mph41%29.90 "Hg10 mi
3:53 PM95 °FPartly sunny.8 mph43%29.93 "Hg10 mi
2:53 PM92 °FScattered clouds.3 mph46%29.94 "Hg10 mi
1:53 PM94 °FSunny.No wind44%29.97 "Hg10 mi
12:53 PM92 °FSunny.5 mph46%29.99 "Hg10 mi
Weather by CustomWeather, © 2015

See weather overviewHow to use our weather pages